Regional Weather Roundup
Issued by NWS

Home | Current Version | Previous Version | Graphics & Text | Print | Product List | Glossary Off
Versions: 1 2 3 4 5 6 7 8 9 10 11 12 13 14 15 16 17 18 19 20 21 22 23 24 25 26 27 28 29 30 31 32 33 34 35 36 37 38 39 40 41 42 43 44 45 46 47 48 49 50

000
ASUS43 KDMX 250306
RWRIA

WEATHER ROUNDUP FOR IOWA
NATIONAL WEATHER SERVICE DES MOINES IA
1000 PM CDT MON JUL 24 2017

NOTE: "FAIR" INDICATES FEW OR NO CLOUDS BELOW 12,000 FEET WITH NO
SIGNIFICANT WEATHER AND/OR OBSTRUCTIONS TO VISIBILITY.

* - THESE STATIONS ARE NOT NWS STATIONS...THUS NOT UNDER NWS
QUALITY CONTROL.  THEY ALSO DO NOT REPORT WEATHER SUCH
AS PRECIPITATION OR FOG.

IAZ001>003-012>014-020>022-031>034-043>046-250400-
   NORTHWEST IOWA

CITY           SKY/WX    TMP DP  RH WIND       PRES   REMARKS
CARROLL *      PTCLDY    70  66  88 SE7       30.01R
CHEROKEE *     CLEAR     71  65  82 SE5       29.99R
DENISON *      CLEAR     72  66  83 SE5       30.02R
ORANGE CITY *  CLEAR     72  66  83 SE5       29.97S
SHELDON *      CLEAR     72  64  78 SE7       29.97R
SIOUX CITY     CLEAR     75  66  73 SE10      29.95R
SPENCER        CLEAR     73  63  70 SE9       30.01R
STORM LAKE *   CLEAR     72  64  78 SE8       30.02R
$$

IAZ055>058-069>071-079>083-090>094-250400-
   SOUTHWEST IOWA

CITY           SKY/WX    TMP DP  RH WIND       PRES   REMARKS
ATLANTIC *     CLEAR     73  66  78 S3        30.01R
AUDUBON *      CLEAR     70  64  83 CALM      30.03R
CLARINDA *       N/A     75  68  78 CALM      30.02R
COUNCIL BLFS * CLEAR     73  72  94 SE6       30.00R
CRESTON *      CLEAR     73  64  73 S6        30.04R
HARLAN  *      CLEAR     72  68  88 SW3       30.04R
LAMONI         CLEAR     74  65  73 S5        30.01S
RED OAK *      CLEAR     73  68  83 S5        30.00R
SHENANDOAH *     N/A     73  68  83 CALM      30.00R
$$

IAZ047>049-059>061-072>074-084-250400-
   CENTRAL IOWA

CITY           SKY/WX    TMP DP  RH WIND       PRES   REMARKS
AMES           CLEAR     70  66  87 E5        30.02R
ANKENY *       CLEAR     72  64  78 E7        30.03R
BOONE *        CLEAR     68  63  83 E8        30.02R
CHARITON *     CLEAR     73  64  73 E7        30.01S
DES MOINES     CLEAR     76  63  64 E9        30.00R
GRINNELL*      CLEAR     68  64  87 E7        30.06R
KNOXVILLE *    CLEAR     72  64  78 E7        30.02R
MARSHALLTOWN   CLEAR     67  64  90 E7        30.04R
NEWTON *       CLEAR     70  64  83 E9        30.04R
PELLA *          N/A     72  64  76 E5        30.04R
$$

IAZ004>006-015-016-023>025-035-036-250400-
   NORTH CENTRAL IOWA

CITY           SKY/WX    TMP DP  RH WIND       PRES   REMARKS
ALGONA *       CLEAR     70  64  83 SE8       30.03R
ESTHERVILLE    CLEAR     69  64  84 SE12      30.00S
FORT DODGE *   CLEAR     70  61  73 E8        30.03R
MASON CITY     CLEAR     68  63  84 SE10      30.05F
FOREST CITY *    N/A     68  63  83 SE5       30.04S
WEBSTER CITY * CLEAR     66  63  88 SE7       30.01S
IOWA FALLS *     N/A     66  64  90 E5        30.06R
$$

IAZ007>011-017>019-026>030-037>042-050>054-066-250400-
   NORTHEAST IOWA

CITY           SKY/WX    TMP DP  RH WIND       PRES   REMARKS
CEDAR RAPIDS   CLEAR     65  64  97 E6        30.06R
CHARLES CITY * CLEAR     64  64 100 E5        30.07S
DECORAH *      PTCLDY    64  61  88 SE6       30.08S
DUBUQUE        CLEAR     65  60  84 E6        30.10R
MONTICELLO *   CLEAR     64  63  94 E3        30.07S
OELWEIN *        N/A    N/A N/A N/A MISG        N/A
WATERLOO       CLEAR     65  61  87 E6        30.05R
$$

IAZ064-065-067-068-078-250400-
   EAST CENTRAL IOWA

CITY           SKY/WX    TMP DP  RH WIND       PRES   REMARKS
DAVENPORT      CLEAR     64  61  90 E5        30.10R
IOWA CITY      CLEAR     71  63  75 E5        30.07R
MT. PLEASANT * CLEAR     66  65  98 E5        30.06R
MUSCATINE *    CLEAR     70  63  78 E5        30.06R
QUAD CITIES    CLEAR     67  62  84 CALM      30.07R
$$

IAZ062-063-075>077-085>089-095>099-250400-
   SOUTHEAST IOWA

CITY           SKY/WX    TMP DP  RH WIND       PRES   REMARKS
BURLINGTON     CLEAR     70  65  84 E5        30.06R
FAIRFIELD *    CLEAR     68  64  88 E8        30.05R
FORT MADISON * CLEAR     68  64  88 E5        30.06R
KEOKUK *       CLEAR     70  64  83 E8        30.04S
OSKALOOSA *      N/A     69  64  85 E6        30.04R
CENTERVILLE *    N/A     68  63  83 CALM      30.04R
OTTUMWA        CLEAR     71  66  84 E9        30.03R
WASHINGTON *   CLEAR     66  64  94 E6        30.07R
$$

ABBREVIATIONS USED IN REMARKS
   TC - TEMPERATURES IN CELSIUS
  WCI - WIND CHILL INDEX
   HX - HEAT INDEX
  VSB - VISIBILITY
$$




USA.gov is the U.S. government's official web portal to all federal, state and local government web resources and services.